FW6157 Weather Reports


Display with metric or nautical units.
time (UTC)temp
F
wind
direction
speed
MPH
gust
MPH
rain 1hr
in
rain 24hr
in
rain mn
in
humidity
%
barometer
mb
20260505023044 59 0 0.0 0.0 0.00 0.00 0.00 71 1016.0
20260505022525 59 0 0.0 0.0 0.00 0.00 0.00 70 1015.9
20260505022023 59 0 0.0 0.0 0.00 0.00 0.00 68 1016.0
20260505021539 59 0 0.0 1.0 0.00 0.00 0.00 67 1015.8
20260505021022 60 0 0.0 1.0 0.00 0.00 0.00 66 1015.9
20260505020522 60 0 0.0 1.0 0.00 0.00 0.00 66 1015.8
20260505020037 60 0 0.0 0.0 0.00 0.00 0.00 66 1015.8
20260505015520 60 0 0.0 0.0 0.00 0.00 0.00 65 1015.8
20260505015024 61 0 0.0 0.0 0.00 0.00 0.00 63 1015.7
20260505014542 61 0 0.0 0.0 0.00 0.00 0.00 62 1015.5
20260505014020 62 0 0.0 0.0 0.00 0.00 0.00 61 1015.6
20260505013521 62 0 0.0 0.0 0.00 0.00 0.00 62 1015.6
20260505013036 62 0 0.0 0.0 0.00 0.00 0.00 61 1015.5
20260505012523 63 0 0.0 0.0 0.00 0.00 0.00 60 1015.5
20260505012019 63 0 0.0 0.0 0.00 0.00 0.00 61 1015.5
20260505011535 64 0 0.0 0.0 0.00 0.00 0.00 59 1015.4
20260505011022 65 0 0.0 0.0 0.00 0.00 0.00 59 1015.3
20260505010522 65 0 0.0 0.0 0.00 0.00 0.00 58 1015.3
20260505010041 66 0 0.0 0.0 0.00 0.00 0.00 56 1015.2
20260505005523 66 0 0.0 0.0 0.00 0.00 0.00 55 1015.2
20260505005024 67 0 0.0 0.0 0.00 0.00 0.00 53 1015.1
20260505004539 67 0 0.0 0.0 0.00 0.00 0.00 53 1015.1
20260505004021 68 0 0.0 0.0 0.00 0.00 0.00 51 1015.1
20260505003525 68 0 0.0 0.0 0.00 0.00 0.00 50 1015.1
20260505003037 69 0 0.0 0.0 0.00 0.00 0.00 51 1015.0
20260505002520 69 0 0.0 0.0 0.00 0.00 0.00 50 1015.1
20260505002020 70 0 0.0 0.0 0.00 0.00 0.00 50 1015.1
20260505001547 71 0 0.0 0.0 0.00 0.00 0.00 49 1015.0
20260505001019 71 0 0.0 0.0 0.00 0.00 0.00 47 1015.1
20260505000520 71 0 0.0 0.0 0.00 0.00 0.00 48 1015.0
20260505000041 72 0 0.0 1.0 0.00 0.00 0.00 45 1015.0
20260504235520 72 0 0.0 2.0 0.00 0.00 0.00 46 1014.9
20260504235023 72 0 0.0 2.0 0.00 0.00 0.00 44 1015.0
20260504234536 73 0 0.0 1.0 0.00 0.00 0.00 43 1015.0
20260504234022 73 0 0.0 6.0 0.00 0.00 0.00 42 1014.9
20260504233522 74 0 0.0 6.0 0.00 0.00 0.00 42 1015.0
20260504233036 74 215 1.0 6.0 0.00 0.00 0.00 40 1015.1
20260504232521 74 0 0.0 6.0 0.00 0.00 0.00 40 1015.0
20260504232022 75 0 0.0 7.0 0.00 0.00 0.00 40 1015.0
20260504231555 75 0 1.0 7.0 0.00 0.00 0.00 38 1015.0
20260504231024 75 195 2.0 4.0 0.00 0.00 0.00 38 1015.0
20260504230520 75 0 0.0 3.0 0.00 0.00 0.00 41 1015.1
20260504230037 75 0 0.0 4.0 0.00 0.00 0.00 40 1015.0
20260504225520 76 0 1.0 4.0 0.00 0.00 0.00 41 1014.9
20260504225021 76 179 0.0 4.0 0.00 0.00 0.00 38 1014.9
20260504224539 76 194 1.0 3.0 0.00 0.00 0.00 39 1014.9
20260504224023 76 0 0.0 3.0 0.00 0.00 0.00 39 1014.9
20260504223525 76 180 0.0 3.0 0.00 0.00 0.00 38 1014.8
20260504223035 76 180 1.0 3.0 0.00 0.00 0.00 38 1014.9
20260504222523 76 0 0.0 2.0 0.00 0.00 0.00 37 1014.9
20260504222020 76 0 0.0 6.0 0.00 0.00 0.00 37 1015.0
20260504221535 76 0 0.0 6.0 0.00 0.00 0.00 36 1015.1
20260504221020 76 173 0.0 6.0 0.00 0.00 0.00 36 1015.0
20260504220521 76 0 0.0 0.0 0.00 0.00 0.00 35 1015.0
20260504220036 77 0 0.0 4.0 0.00 0.00 0.00 36 1015.0
20260504215520 77 0 0.0 9.0 0.00 0.00 0.00 36 1015.0
20260504215023 77 0 1.0 9.0 0.00 0.00 0.00 34 1014.9
20260504214539 77 197 1.0 5.0 0.00 0.00 0.00 31 1015.0
20260504214023 77 133 1.0 5.0 0.00 0.00 0.00 31 1015.0
20260504213522 77 172 0.0 6.0 0.00 0.00 0.00 35 1015.1
20260504213036 77 188 2.0 6.0 0.00 0.00 0.00 34 1014.9
20260504212522 77 159 0.0 5.0 0.00 0.00 0.00 36 1015.0
20260504212019 78 0 0.0 5.0 0.00 0.00 0.00 36 1015.1
20260504211542 77 203 1.0 6.0 0.00 0.00 0.00 38 1015.0
20260504211021 78 186 0.0 6.0 0.00 0.00 0.00 38 1015.0
20260504210520 78 0 0.0 8.0 0.00 0.00 0.00 38 1015.0
20260504210051 78 0 1.0 8.0 0.00 0.00 0.00 36 1015.1
20260504205520 78 217 0.0 8.0 0.00 0.00 0.00 36 1015.1
20260504205019 79 0 2.0 7.0 0.00 0.00 0.00 35 1015.1
20260504204547 79 161 1.0 5.0 0.00 0.00 0.00 34 1015.1
20260504204020 79 205 2.0 5.0 0.00 0.00 0.00 33 1015.0
20260504203521 80 209 0.0 9.0 0.00 0.00 0.00 34 1015.0
20260504203044 80 198 0.0 10.0 0.00 0.00 0.00 33 1015.1
20260504202520 80 194 3.0 10.0 0.00 0.00 0.00 34 1015.2
20260504202021 80 157 1.0 7.0 0.00 0.00 0.00 32 1015.2
20260504201545 80 0 1.0 7.0 0.00 0.00 0.00 35 1015.3
20260504201021 80 0 0.0 5.0 0.00 0.00 0.00 35 1015.4
20260504200520 80 140 1.0 5.0 0.00 0.00 0.00 36 1015.4
20260504200036 80 110 0.0 4.0 0.00 0.00 0.00 36 1015.4
20260504195519 80 175 1.0 6.0 0.00 0.00 0.00 37 1015.5
20260504195019 80 0 0.0 6.0 0.00 0.00 0.00 34 1015.5
20260504194557 80 207 1.0 6.0 0.00 0.00 0.00 36 1015.7
20260504194020 79 0 1.0 7.0 0.00 0.00 0.00 38 1015.6
20260504193520 80 51 2.0 7.0 0.00 0.00 0.00 35 1015.9
20260504193035 79 130 1.0 6.0 0.00 0.00 0.00 36 1015.9
20260504192520 79 0 1.0 5.0 0.00 0.00 0.00 39 1016.0
20260504192022 78 0 0.0 5.0 0.00 0.00 0.00 35 1016.0
20260504191545 79 0 0.0 8.0 0.00 0.00 0.00 37 1016.2
20260504191021 79 233 2.0 8.0 0.00 0.00 0.00 36 1016.3
20260504190523 79 0 1.0 5.0 0.00 0.00 0.00 36 1016.3
20260504190045 78 0 0.0 3.0 0.00 0.00 0.00 37 1016.5
20260504185523 78 146 0.0 6.0 0.00 0.00 0.00 37 1016.5
20260504185022 78 231 1.0 6.0 0.00 0.00 0.00 40 1016.6
20260504184540 78 0 1.0 6.0 0.00 0.00 0.00 37 1016.7
20260504184020 77 178 1.0 4.0 0.00 0.00 0.00 36 1016.8
20260504183523 77 5 1.0 4.0 0.00 0.00 0.00 35 1016.7
20260504183035 77 328 1.0 7.0 0.00 0.00 0.00 37 1016.9
20260504182519 77 308 2.0 7.0 0.00 0.00 0.00 37 1016.9
20260504182019 77 0 0.0 4.0 0.00 0.00 0.00 37 1016.9
20260504181542 76 0 1.0 4.0 0.00 0.00 0.00 38 1016.9
20260504181020 76 0 0.0 6.0 0.00 0.00 0.00 43 1017.0
20260504180522 75 0 1.0 6.0 0.00 0.00 0.00 40 1016.9
20260504180106 75 12 1.0 5.0 0.00 0.00 0.00 37 1017.1
20260504175522 74 44 1.0 5.0 0.00 0.00 0.00 40 1017.0
20260504175020 75 315 2.0 5.0 0.00 0.00 0.00 36 1017.1
20260504174538 75 0 0.0 4.0 0.00 0.00 0.00 42 1017.0
20260504174020 74 342 0.0 4.0 0.00 0.00 0.00 41 1017.0
20260504173522 74 309 2.0 4.0 0.00 0.00 0.00 38 1017.1
20260504173038 75 314 1.0 4.0 0.00 0.00 0.00 36 1017.3
20260504172519 74 204 0.0 4.0 0.00 0.00 0.00 42 1017.4
20260504172020 73 0 0.0 5.0 0.00 0.00 0.00 40 1017.5
20260504171536 73 44 1.0 9.0 0.00 0.00 0.00 41 1017.3
20260504171020 74 40 3.0 9.0 0.00 0.00 0.00 39 1017.4
20260504170521 74 360 3.0 7.0 0.00 0.00 0.00 40 1017.4
20260504151020 69 0 0.0 5.0 0.00 0.00 0.00 48 1018.7
20260504150520 69 0 2.0 5.0 0.00 0.00 0.00 46 1018.7
20260504141020 66 0 0.0 0.0 0.00 0.00 0.00 54 1018.9
20260504140520 65 0 0.0 0.0 0.00 0.00 0.00 59 1018.9
20260504130520 53 0 0.0 0.0 0.00 0.00 0.00 88 1018.8
20260504110527 44 0 0.0 0.0 0.00 0.00 0.00 92 1018.1
20260504100522 44 0 0.0 0.0 0.00 0.00 0.00 91 1018.0
20260504081537 47 0 0.0 0.0 0.00 0.00 0.00 90 1018.1
20260504081026 47 0 0.0 0.0 0.00 0.00 0.00 89 1018.0
20260504080523 47 0 0.0 0.0 0.00 0.00 0.00 90 1018.1
20260504050525 49 0 0.0 0.0 0.00 0.00 0.00 89 1019.0
20260504045522 50 0 0.0 0.0 0.00 0.00 0.00 88 1018.9
20260504045023 50 0 0.0 0.0 0.00 0.00 0.00 88 1019.0
20260504044536 50 0 0.0 0.0 0.00 0.00 0.00 88 1018.9
20260504044023 50 0 0.0 0.0 0.00 0.00 0.00 87 1018.9
20260504043526 50 0 0.0 0.0 0.00 0.00 0.00 87 1019.0
20260504043036 50 0 0.0 0.0 0.00 0.00 0.00 87 1018.8
20260504042522 50 0 0.0 0.0 0.00 0.00 0.00 86 1018.8
20260504042022 50 0 0.0 0.0 0.00 0.00 0.00 86 1018.8
20260504041536 50 0 0.0 0.0 0.00 0.00 0.00 86 1018.8
20260504041022 51 0 0.0 0.0 0.00 0.00 0.00 86 1018.7
20260504040522 51 0 0.0 0.0 0.00 0.00 0.00 86 1018.6
20260504040040 51 0 0.0 0.0 0.00 0.00 0.00 85 1018.7
20260504035523 51 0 0.0 0.0 0.00 0.00 0.00 85 1018.7
20260504035025 51 0 0.0 0.0 0.00 0.00 0.00 84 1018.7
20260504034547 52 0 0.0 0.0 0.00 0.00 0.00 85 1018.8
20260504034027 52 0 0.0 0.0 0.00 0.00 0.00 84 1018.7
20260504033530 52 0 0.0 0.0 0.00 0.00 0.00 84 1018.8
20260504033036 52 0 0.0 0.0 0.00 0.00 0.00 85 1018.7
20260504032523 52 0 0.0 0.0 0.00 0.00 0.00 84 1018.7
20260504032024 52 0 0.0 0.0 0.00 0.00 0.00 84 1018.8
20260504031547 52 0 0.0 0.0 0.00 0.00 0.00 82 1018.7
20260504031020 52 0 0.0 0.0 0.00 0.00 0.00 81 1018.7
20260504030522 52 0 0.0 0.0 0.00 0.00 0.00 81 1018.7
20260504030040 53 0 0.0 0.0 0.00 0.00 0.00 82 1018.7
20260504025530 53 0 0.0 0.0 0.00 0.00 0.00 81 1018.7
20260504025024 53 0 0.0 0.0 0.00 0.00 0.00 81 1018.7
20260504024540 53 0 0.0 0.0 0.00 0.00 0.00 81 1018.7
20260504024026 53 0 0.0 0.0 0.00 0.00 0.00 79 1018.7
20260504023523 53 0 0.0 0.0 0.00 0.00 0.00 79 1018.6